Location: Newark
(45.5000°N, 11.4167°E)
Time: 17:22:16
(UTC+00:00)

Transit 2A Rocket - Pass Details

Date: 01 September 2019
Orbit: 592 x 911 km, 66.7° (Epoch: 16 September)

Event Time Altitude Azimuth Distance (km) Brightness Sun altitude
Rises 17:40:37 0° 253° (WSW) 3,371 9.6 1.3°
Reaches altitude 10° 17:43:40 10° 268° (W) 2,385 9.5 0.8°
Maximum altitude 17:47:54 22° 319° (NW) 1,611 7.6 0.0°
Drops below altitude 10° 17:51:53 10° 10° (N) 2,224 7.5 -0.7°
Sets 17:54:38 0° 26° (NNE) 3,087 8.0 -1.1°
